SCP
0 0 0 0 0 0 0 0 0 0 0 0 0 0 0 0 0 0 0 0 0 1 1 1 0 0 0 0 0 0 0 0 0 0 0 0 0 0 0 0 0 0 0 0
0 0 0 0 0 0 0 0 0 0 0 0 0 0 0 0 0 0 0 0 0 1 1 1 0 0 0 0 0 0 0 0 0 0 0 0 0 0 0 0 0 0 0 0
0 0 0 0 0 0 0 0 0 0 0 0 0 0 0 0 0 0 0 0 0 1 1 1 1 0 0 0 0 0 0 0 0 0 0 0 0 0 0 0 0 0 0 0
0 0 0 0 0 0 0 0 0 0 0 0 0 0 0 0 0 0 0 0 0 1 1 1 1 0 0 0 0 0 0 0 0 0 0 0 0 0 0 0 0 0 0 0
0 0 0 0 0 0 0 0 0 -0 -0 0 0 0 0 0 0 0 0 0 0 0 1 1 1 1 0 0 0 0 0 0 0 0 0 0 0 0 0 0 0 0 0 0
0 0 0 0 0 0 0 0 0 0 0 0 0 0 0 0 0 0 0 0 0 0 0 0 1 0 0 0 0 0 0 0 0 0 0 0 0 0 0 0 0 0 0 0
0 0 0 0 0 0 0 0 0 0 0 0 0 0 0 0 0 0 0 0 0 0 0 0 0 0 0 0 0 0 0 0 0 0 0 0 0 0 0 0 0 0 0 0
0 0 0 0 0 0 0 0 0 0 0 0 0 0 0 0 0 0 0 0 0 0 0 0 0 0 0 0 0 0 0 0 0 0 0 0 0 0 0 0 0 0 0 0
0 0 0 0 0 0 0 0 0 0 0 0 0 0 0 0 0 0 0 0 0 0 0 0 0 0 0 0 0 0 0 0 0 0 0 0 0 0 0 0 0 0 0 0
0 0 0 0 0 0 0 0 0 0 0 0 0 0 0 0 0 0 0 0 0 0 0 0 0 0 0 0 0 0 0 0 0 0 0 0 0 0 0 0 0 0 0 0
0 0 0 0 0 0 0 0 0 0 0 0 0 0 0 0 0 0 0 0 0 0 0 0 0 0 0 0 0 0 0 0 0 0 0 0 0 0 0 0 0 0 0 0
0 0 0 0 0 0 0 0 0 0 0 0 0 0 0 0 0 0 0 0 0 0 0 0 0 0 0 0 0 0 0 0 0 0 0 0 0 0 0 0 0 0 0 0
0 0 0 0 0 0 0 0 0 0 0 0 0 0 0 0 0 0 0 0 0 0 0 0 0 0 0 0 0 0 0 0 0 0 0 0 0 0 0 0 0 0 0 0
0 0 0 0 0 0 0 0 0 0 0 0 0 0 0 0 0 0 0 0 0 0 0 0 0 0 0 0 0 0 0 0 0 0 0 0 0 0 0 0 0 0 0 0
-0 -0 -0 0 0 0 0 0 0 0 0 0 0 0 0 0 0 0 0 0 0 0 0 0 0 0 0 0 0 0 0 0 0 0 0 0 0 0 0 0 0 0 0 0
0 0 0 0 0 0 0 0 0 0 0 0 0 0 0 0 0 0 0 0 0 0 0 0 0 0 0 0 0 0 0 0 0 0 0 0 0 0 0 0 0 0 0 0
0 0 0 0 0 0 0 0 0 0 0 0 0 0 0 0 0 0 0 0 0 0 0 0 0 0 0 0 0 0 0 0 0 0 0 0 0 0 0 0 0 0 0 0
0 0 0 0 0 0 0 0 0 0 0 0 0 0 0 0 0 0 0 0 0 0 0 0 0 0 0 0 0 0 0 0 0 0 0 0 0 0 0 0 0 0 0 0
0 0 0 0 0 0 0 0 0 0 0 0 0 0 0 0 0 0 0 0 0 0 0 0 0 0 0 0 0 0 0 0 0 0 0 0 0 0 0 0 0 0 0 0
0 0 0 0 0 0 0 0 0 0 0 0 0 0 0 0 0 0 0 0 0 0 0 0 0 0 0 0 0 0 0 0 0 0 0 0 0 0 0 0 0 0 0 0
0 0 0 0 0 0 0 0 0 0 0 0 0 0 0 0 0 0 0 0 0 0 0 0 0 0 0 0 0 0 0 0 0 0 0 0 0 0 0 0 0 0 0 0
0 0 0 0 0 0 0 0 0 0 0 0 0 0 0 0 0 0 0 0 0 0 0 0 0 0 0 0 0 0 0 0 0 0 0 0 0 0 0 0 0 0 0 0
0 0 0 0 0 0 0 0 0 0 0 0 0 0 0 0 0 0 0 0 0 0 0 0 0 0 0 0 0 0 0 0 0 0 0 0 0 0 0 0 0 0 0 0
0 0 0 0 0 0 0 0 0 0 0 0 0 0 0 0 0 0 0 0 0 0 0 0 0 0 0 0 0 0 0 0 0 0 0 0 0 0 0 0 0 0 0 0
0 0 0 0 0 0 0 0 0 0 0 0 0 0 0 0 0 0 0 0 0 0 0 0 0 0 0 0 0 0 0 0 0 0 0 0 0 0 0 0 0 0 0 0
0 0 0 0 0 0 0 0 0 0 0 0 0 0 0 0 0 0 0 0 0 0 0 0 0 0 0 0 0 0 0 0 0 0 0 0 0 0 0 0 0 0 0 0
0 0 0 0 0 0 0 0 0 0 0 0 0 0 0 0 0 0 0 0 0 0 0 0 0 0 0 0 0 0 0 0 0 0 0 0 0 0 0 0 0 0 0 0
Wind_Speed
15 15 14 15 15 13 14 16 15 13 15 15 15 11 7 3 4 5 5 7 10 12 12 12 12 12 12 12 10 9 7 5 5 5 5 5 5 5 5 6 7 6 7 9
14 14 15 16 17 16 16 17 17 18 18 16 12 7 7 5 4 4 5 7 9 12 14 14 14 13 12 12 10 9 8 7 5 5 5 5 5 5 5 6 7 6 7 7
6 6 5 9 12 16 18 15 14 16 14 11 8 7 7 4 2 2 1 2 4 8 12 14 15 15 14 13 11 10 10 8 7 7 6 6 5 4 4 5 6 7 7 6
2 3 4 8 5 3 9 11 11 12 13 13 10 5 3 2 1 1 1 3 3 2 6 9 12 14 14 13 11 10 8 8 7 6 6 5 5 5 5 4 5 5 6 7
4 6 6 3 6 4 4 7 2 4 6 5 1 5 6 4 1 1 3 4 5 3 0 4 8 10 11 10 10 8 8 8 6 7 6 6 6 7 7 5 5 5 5 7
5 5 2 6 5 0 4 3 4 3 3 2 6 4 4 7 6 6 5 5 5 5 5 3 3 5 8 10 10 8 8 7 6 6 5 6 7 7 8 7 7 8 8 8
9 6 4 3 2 2 5 4 5 4 3 7 6 3 6 9 9 8 6 6 5 6 6 6 5 5 8 9 9 8 7 6 6 6 7 8 6 6 7 7 7 8 8 9
8 6 3 6 5 6 8 7 6 7 6 7 4 4 8 9 9 8 7 6 4 5 5 5 4 1 0 2 2 3 5 7 7 7 6 6 7 6 6 6 7 8 8 7
4 4 3 4 9 10 9 10 10 10 7 7 7 7 9 9 9 8 8 6 5 5 5 4 3 2 1 0 2 4 6 7 7 7 7 6 7 7 7 8 7 7 7 7
5 8 9 8 10 12 10 10 10 10 9 8 9 9 10 9 9 8 7 6 6 5 5 4 4 1 3 3 3 4 6 6 6 6 6 7 6 5 5 5 7 8 7 6
8 10 9 8 8 7 6 6 6 6 8 9 9 10 10 9 9 8 7 7 6 5 4 4 3 2 2 3 4 5 5 5 7 6 6 7 7 5 6 6 5 5 6 6
9 9 9 9 6 3 6 7 5 6 7 9 10 10 10 9 8 8 8 7 7 6 5 4 3 2 2 3 4 5 6 7 5 5 5 5 4 3 0 2 4 2 3 5
13 9 7 10 7 7 8 7 5 7 9 11 10 10 10 9 9 8 8 8 7 5 4 4 3 3 2 1 3 3 4 3 3 4 4 4 5 5 4 3 3 4 3 2
13 9 11 11 6 4 5 5 4 7 10 11 11 11 10 9 9 9 9 7 5 5 5 4 3 3 2 3 3 4 4 2 3 2 3 4 5 5 5 5 6 5 4 2
14 13 14 11 7 7 6 6 7 10 12 11 11 12 12 11 10 8 7 6 6 6 5 5 3 2 1 3 4 4 3 3 3 3 4 4 3 3 3 3 3 3 3 3
12 10 11 12 12 8 6 7 10 12 14 13 13 13 12 9 7 7 7 8 8 7 6 5 3 2 1 2 3 3 3 2 2 4 5 4 4 4 4 4 4 4 4 3
13 14 13 13 13 11 8 7 10 12 14 14 14 12 10 8 8 8 8 9 7 6 5 5 4 4 3 2 1 1 1 1 2 3 5 5 5 4 3 3 3 4 3 4
19 19 16 15 14 13 11 9 10 13 14 14 13 11 10 10 9 9 10 10 8 7 6 5 5 5 4 2 1 0 1 1 3 3 2 1 2 3 3 3 3 3 3 4
15 15 14 14 14 13 13 10 11 13 14 13 12 12 10 9 8 9 11 11 9 7 7 7 6 4 4 2 1 1 2 2 3 2 3 3 3 3 3 3 4 4 4 4
12 12 11 11 12 14 13 12 10 11 12 13 12 11 9 8 9 11 12 10 6 4 7 8 7 4 3 4 2 2 2 2 2 2 3 3 3 3 3 3 4 4 4 4
10 9 9 9 10 11 12 12 10 11 12 13 12 11 9 10 11 12 10 8 8 8 8 7 5 5 4 4 3 3 3 3 2 3 3 2 2 2 3 3 3 3 3 3
7 7 7 7 7 9 10 11 10 11 12 12 11 10 11 12 13 11 8 7 10 10 8 6 5 6 6 5 4 3 3 3 3 2 2 1 2 2 3 3 3 3 3 3
7 7 7 6 8 9 11 10 10 11 12 13 12 12 12 12 11 10 9 9 10 9 7 7 9 9 8 5 4 4 3 3 2 2 2 2 1 1 2 2 2 2 2 3
7 7 6 6 8 11 12 11 10 10 10 11 11 12 13 12 9 6 9 11 12 10 8 10 12 11 7 5 4 3 3 2 1 2 1 1 1 1 2 2 2 3 3 2
5 5 7 9 10 10 11 12 11 11 11 10 11 11 11 10 11 10 11 12 13 10 10 12 13 10 6 5 5 4 3 2 0 2 2 2 1 1 2 2 3 2 2 1
3 4 6 8 8 8 10 10 10 10 10 10 10 10 9 9 10 10 11 12 12 9 9 9 9 7 5 5 5 5 4 3 2 1 1 1 1 1 1 2 3 2 2 2
0 3 5 6 7 8 8 9 10 10 11 11 11 11 11 10 10 11 11 11 10 9 7 7 7 6 5 5 5 5 5 4 3 1 1 1 1 1 1 2 2 2 1 0
Wind_Direction
270 279 275 267 261 237 234 245 263 275 276 276 288 306 303 270 198 199 202 194 195 198 201 206 210 208 211 203 188 188 194 205 222 212 200 211 229 246 256 260 254 235 228 212
262 257 251 253 250 245 244 254 264 268 273 278 280 275 260 231 197 223 220 210 206 206 207 209 208 206 207 207 198 191 197 208 212 220 205 213 233 249 255 251 247 225 222 208
290 349 7 269 245 236 233 237 251 263 278 291 290 252 252 240 185 179 196 232 231 222 214 212 210 206 207 207 200 199 205 210 214 212 207 211 221 235 242 239 230 220 207 196
199 222 221 203 227 232 234 244 241 259 283 288 283 266 234 202 222 264 330 339 340 289 227 218 212 207 209 203 198 205 213 217 214 222 220 220 224 229 230 227 218 212 203 201
206 221 256 173 151 170 250 274 221 265 304 328 246 208 204 178 169 23 43 50 48 36 346 213 214 204 207 195 196 201 218 224 203 206 219 235 231 227 220 205 208 207 207 202
242 264 247 124 125 342 280 229 98 316 306 174 187 243 109 137 141 124 102 85 80 80 83 100 146 179 195 198 201 205 217 219 209 216 225 231 233 228 214 200 209 206 202 212
249 266 278 62 111 209 255 47 17 311 262 207 239 25 108 136 135 127 120 112 104 94 85 84 105 158 193 200 208 207 212 221 220 229 236 233 231 235 212 196 203 215 207 206
225 249 256 137 169 236 310 338 320 298 277 244 237 142 148 148 145 147 147 138 126 113 104 89 70 49 201 232 236 208 215 224 226 235 243 240 227 214 198 197 209 216 214 207
223 272 323 245 270 289 296 290 293 281 264 228 200 184 170 165 160 160 157 154 157 151 138 120 93 43 354 52 215 220 217 218 226 237 238 235 233 220 202 200 211 213 213 212
217 252 267 280 272 272 278 276 289 281 249 211 195 182 177 174 169 168 170 172 175 181 179 152 139 168 276 286 280 262 249 234 233 239 250 234 222 217 206 212 220 213 206 217
243 277 286 272 259 271 283 278 279 255 224 207 187 177 178 179 178 179 178 186 195 205 212 182 163 219 250 259 247 226 228 227 242 237 235 248 237 220 216 215 230 239 227 227
264 297 313 306 316 286 271 273 256 222 210 198 185 175 177 179 179 184 191 198 210 222 230 222 224 281 282 230 219 228 217 220 234 262 257 251 248 219 50 240 205 242 324 311
272 302 299 287 298 276 276 281 254 224 201 183 180 175 181 181 179 186 200 209 220 222 219 225 226 267 298 274 237 278 285 283 272 258 251 213 202 203 184 169 192 203 208 230
260 269 272 277 285 297 285 275 247 219 191 182 177 177 183 186 179 195 207 211 211 196 189 195 212 254 276 285 291 298 301 267 237 175 183 201 202 196 196 189 189 178 176 185
252 240 254 280 275 272 277 258 224 191 179 180 180 183 191 196 197 202 203 188 179 182 177 176 187 238 272 291 301 305 281 221 196 171 178 180 198 180 189 206 218 190 176 154
250 239 240 248 252 255 262 237 214 190 184 183 185 195 201 205 200 192 184 179 179 180 177 179 186 131 262 296 294 262 216 234 224 176 168 175 191 192 206 194 198 189 198 167
244 248 248 242 235 232 226 212 211 200 190 189 194 197 195 189 190 188 180 180 178 157 160 166 140 129 144 141 123 264 180 206 249 210 184 185 198 194 217 174 179 194 179 164
257 260 261 254 245 237 226 209 205 205 197 196 194 190 191 193 195 188 176 169 161 153 159 152 133 140 148 148 123 187 217 207 237 229 162 190 211 157 172 164 163 180 153 159
249 248 248 248 246 244 237 221 206 207 203 193 191 195 195 196 188 174 166 168 172 174 168 154 136 168 170 146 268 223 233 236 233 214 175 184 182 156 167 152 153 162 162 165
233 232 232 234 234 235 234 226 212 206 201 189 192 191 187 178 168 162 164 168 168 153 145 151 164 157 136 129 183 204 182 201 211 176 178 185 184 175 175 178 170 166 170 181
215 217 225 231 228 222 216 203 195 196 191 186 188 187 175 161 159 157 160 160 149 139 136 148 157 133 130 136 154 176 164 142 151 164 174 190 195 200 185 193 189 174 182 189
228 232 235 234 216 198 192 188 184 184 179 176 175 166 156 154 152 150 151 148 144 151 147 149 139 130 138 160 165 157 137 130 133 138 153 195 204 196 193 199 201 190 194 200
234 234 233 218 197 177 168 172 171 172 170 164 163 161 155 152 150 150 149 143 144 154 145 131 126 136 155 169 153 151 148 154 163 160 167 183 194 203 205 208 212 226 231 221
228 223 217 191 172 163 160 160 157 156 151 147 152 152 149 146 139 133 128 137 137 144 137 133 141 153 180 157 138 126 117 113 124 119 152 256 252 220 207 217 220 220 228 243
215 194 178 171 170 164 147 143 140 138 136 137 140 145 148 144 137 137 139 138 141 150 143 150 155 167 189 158 139 143 145 140 66 63 80 84 101 222 265 274 278 285 276 255
217 175 167 171 161 144 144 147 145 142 140 137 141 142 134 128 128 137 138 142 151 154 152 157 165 181 182 159 144 155 163 163 173 234 354 35 33 19 348 331 321 317 306 324
238 153 155 154 150 149 148 147 146 148 150 146 142 141 137 137 139 140 143 148 153 158 159 164 162 173 171 162 167 177 185 186 172 195 225 247 268 306 348 353 344 309 272 307